Location: ????????
(55.0808°N, 38.5463°E)
Time: 03:26:49
(UTC+00:00)

Nimbus 3 Rocket - Pass Details

Date: 23 September 2024
Orbit: 1072 x 1131 km, 99.9° (Epoch: 03 October)

Event Time Altitude Azimuth Distance (km) Brightness Sun altitude
Rises 19:52:44 0° 24° (NNE) 3,907 8.7 -32.7°
Reaches altitude 10° 19:56:11 10° 41° (NE) 2,936 7.7 -32.9°
Enters shadow 19:58:59 17° 65° (ENE) 2,421 7.0 -33.1°
